Climatologie pour Saint-Brevin les Pins
Jour • Résumé pour mars 8, 2017 Système :  Métrique    Anglais   Mixte
« - 1 jour
+ 1 jour »
Jour Semaine Mois Année Personnalisé
  Maximum : Minimum : Moyenne :
Température sous abri : 11.9 °C 10.2 °C 10.8 °C
Point de rosée : 11.4 °C 9.9 °C 10.6 °C
Humidité : 99 % 97 % 98 %
Vitesse du vent : 24.1 km/h 1.6 km/h 10.1 km/h
Rafale : 32.2 km/h - -
Direction :- - West
Pression : 1024.6 hPa 1020.5 hPa -
Précipitations : 0.5 mm    
Historical Graphs
 
 
Tableau de données pour mars 8, 2017
Heure Tempé Pt rosée Pression Vent Vitesse Rafale Humidité Taux pluie (/hr) Soleil
00:00 10.6 °C 10.3 °C 1021.6 hPa West 11.3 km/h 14.5 km/h 98 % 0.3 mm 0 W/m2
00:10 10.5 °C 10.3 °C 1021.2 hPa WNW 3.2 km/h 17.7 km/h 99 % 0.3 mm 0 W/m2
00:15 10.4 °C 10.3 °C 1021.2 hPa West 6.4 km/h 17.7 km/h 99 % 0.3 mm 0 W/m2
00:20 10.4 °C 10.3 °C 1021.2 hPa West 3.2 km/h 14.5 km/h 99 % 0.3 mm 0 W/m2
00:25 10.5 °C 10.3 °C 1021.2 hPa WNW 9.7 km/h 11.3 km/h 99 % 0.3 mm 0 W/m2
00:30 10.5 °C 10.3 °C 1021.2 hPa WNW 9.7 km/h 12.9 km/h 99 % 0.3 mm 0 W/m2
00:35 10.5 °C 10.3 °C 1021.2 hPa West 1.6 km/h 12.9 km/h 99 % 0.3 mm 0 W/m2
00:40 10.5 °C 10.3 °C 1021.2 hPa WNW 8.0 km/h 16.1 km/h 99 % 0.3 mm 0 W/m2
00:45 10.5 °C 10.3 °C 1021.2 hPa WNW 3.2 km/h 16.1 km/h 99 % 0.3 mm 0 W/m2
00:50 10.5 °C 10.3 °C 1021.2 hPa West 9.7 km/h 14.5 km/h 99 % 0.3 mm 0 W/m2
00:55 10.6 °C 10.4 °C 1021.2 hPa WNW 4.8 km/h 16.1 km/h 99 % 0.0 mm 0 W/m2
01:00 10.6 °C 10.4 °C 1021.2 hPa WNW 6.4 km/h 16.1 km/h 99 % 0.0 mm 0 W/m2
01:05 10.5 °C 10.3 °C 1021.2 hPa West 6.4 km/h 17.7 km/h 99 % 0.0 mm 0 W/m2
01:10 10.5 °C 10.3 °C 1021.2 hPa WNW 8.0 km/h 17.7 km/h 99 % 0.0 mm 0 W/m2
01:15 10.6 °C 10.4 °C 1021.2 hPa West 11.3 km/h 19.3 km/h 99 % 0.0 mm 0 W/m2
01:20 10.6 °C 10.4 °C 1021.2 hPa West 9.7 km/h 19.3 km/h 99 % 0.0 mm 0 W/m2
01:30 10.6 °C 10.4 °C 1021.2 hPa West 8.0 km/h 20.9 km/h 99 % 0.0 mm 0 W/m2
01:35 10.6 °C 10.4 °C 1021.2 hPa WNW 11.3 km/h 20.9 km/h 99 % 0.0 mm 0 W/m2
01:40 10.6 °C 10.4 °C 1021.2 hPa West 8.0 km/h 22.5 km/h 99 % 0.0 mm 0 W/m2
01:45 10.6 °C 10.4 °C 1021.2 hPa West 16.1 km/h 22.5 km/h 99 % 0.0 mm 0 W/m2
01:50 10.6 °C 10.4 °C 1021.6 hPa WNW 9.7 km/h 19.3 km/h 99 % 0.0 mm 0 W/m2
01:55 10.6 °C 10.4 °C 1021.6 hPa NW 8.0 km/h 17.7 km/h 99 % 0.0 mm 0 W/m2
02:00 10.6 °C 10.4 °C 1021.2 hPa West 4.8 km/h 17.7 km/h 99 % 0.0 mm 0 W/m2
02:05 10.6 °C 10.5 °C 1021.2 hPa West 4.8 km/h 20.9 km/h 99 % 0.0 mm 0 W/m2
02:10 10.6 °C 10.5 °C 1021.2 hPa WNW 8.0 km/h 20.9 km/h 99 % 0.0 mm 0 W/m2
02:15 10.6 °C 10.4 °C 1021.2 hPa West 8.0 km/h 20.9 km/h 99 % 0.0 mm 0 W/m2
02:20 10.6 °C 10.4 °C 1021.2 hPa West 8.0 km/h 20.9 km/h 99 % 0.0 mm 0 W/m2
02:25 10.6 °C 10.4 °C 1021.6 hPa WNW 8.0 km/h 19.3 km/h 99 % 0.0 mm 0 W/m2
02:30 10.6 °C 10.4 °C 1021.2 hPa West 14.5 km/h 19.3 km/h 99 % 0.0 mm 0 W/m2
02:35 10.6 °C 10.4 °C 1021.2 hPa WNW 12.9 km/h 17.7 km/h 99 % 0.0 mm 0 W/m2
02:40 10.6 °C 10.4 °C 1021.2 hPa NNW 8.0 km/h 17.7 km/h 99 % 0.0 mm 0 W/m2
02:45 10.6 °C 10.4 °C 1021.2 hPa West 14.5 km/h 17.7 km/h 99 % 0.0 mm 0 W/m2
02:50 10.6 °C 10.4 °C 1021.2 hPa WSW 8.0 km/h 17.7 km/h 99 % 0.0 mm 0 W/m2
02:55 10.6 °C 10.4 °C 1021.2 hPa WSW 9.7 km/h 16.1 km/h 99 % 0.0 mm 0 W/m2
03:00 10.6 °C 10.4 °C 1021.2 hPa WNW 4.8 km/h 19.3 km/h 99 % 0.0 mm 0 W/m2
03:05 10.6 °C 10.4 °C 1021.2 hPa West 4.8 km/h 19.3 km/h 99 % 0.0 mm 0 W/m2
03:10 10.6 °C 10.4 °C 1021.2 hPa West 11.3 km/h 19.3 km/h 99 % 0.0 mm 0 W/m2
03:15 10.6 °C 10.4 °C 1021.2 hPa West 4.8 km/h 19.3 km/h 99 % 0.0 mm 0 W/m2
03:20 10.6 °C 10.4 °C 1021.2 hPa West 11.3 km/h 22.5 km/h 99 % 0.0 mm 0 W/m2
03:25 10.5 °C 10.3 °C 1021.2 hPa West 16.1 km/h 22.5 km/h 99 % 0.0 mm 0 W/m2
03:30 10.5 °C 10.3 °C 1020.9 hPa West 8.0 km/h 19.3 km/h 99 % 0.0 mm 0 W/m2
03:35 10.5 °C 10.3 °C 1020.9 hPa NW 4.8 km/h 17.7 km/h 99 % 0.0 mm 0 W/m2
03:40 10.4 °C 10.3 °C 1020.9 hPa West 6.4 km/h 20.9 km/h 99 % 0.0 mm 0 W/m2
03:45 10.4 °C 10.3 °C 1020.5 hPa West 3.2 km/h 22.5 km/h 99 % 0.0 mm 0 W/m2
03:50 10.4 °C 10.3 °C 1020.5 hPa WNW 1.6 km/h 22.5 km/h 99 % 0.0 mm 0 W/m2
03:55 10.4 °C 10.3 °C 1020.5 hPa West 9.7 km/h 19.3 km/h 99 % 0.0 mm 0 W/m2
04:00 10.5 °C 10.3 °C 1020.5 hPa West 12.9 km/h 22.5 km/h 99 % 0.0 mm 0 W/m2
04:05 10.5 °C 10.3 °C 1020.5 hPa West 11.3 km/h 22.5 km/h 99 % 0.0 mm 0 W/m2
04:10 10.6 °C 10.4 °C 1020.9 hPa WNW 9.7 km/h 20.9 km/h 99 % 0.0 mm 0 W/m2
04:20 10.6 °C 10.4 °C 1020.9 hPa WNW 12.9 km/h 25.7 km/h 99 % 0.0 mm 0 W/m2
04:25 10.5 °C 10.3 °C 1020.9 hPa WNW 9.7 km/h 25.7 km/h 99 % 0.0 mm 0 W/m2
04:30 10.4 °C 10.3 °C 1020.9 hPa West 12.9 km/h 20.9 km/h 99 % 0.0 mm 0 W/m2
04:40 10.4 °C 10.2 °C 1020.9 hPa WSW 11.3 km/h 19.3 km/h 99 % 0.0 mm 0 W/m2
04:45 10.4 °C 10.2 °C 1021.2 hPa WSW 4.8 km/h 22.5 km/h 99 % 0.0 mm 0 W/m2
04:50 10.4 °C 10.2 °C 1021.2 hPa West 12.9 km/h 22.5 km/h 99 % 0.0 mm 0 W/m2
04:55 10.3 °C 10.2 °C 1021.2 hPa West 17.7 km/h 20.9 km/h 99 % 0.0 mm 0 W/m2
05:00 10.4 °C 10.2 °C 1021.2 hPa West 22.5 km/h 22.5 km/h 99 % 0.0 mm 0 W/m2
05:05 10.3 °C 10.2 °C 1020.9 hPa WSW 4.8 km/h 22.5 km/h 99 % 0.0 mm 0 W/m2
05:10 10.3 °C 10.2 °C 1021.2 hPa WNW 6.4 km/h 17.7 km/h 99 % 0.0 mm 0 W/m2
05:15 10.3 °C 10.2 °C 1021.2 hPa West 9.7 km/h 19.3 km/h 99 % 0.0 mm 0 W/m2
05:20 10.3 °C 10.1 °C 1021.2 hPa SW 17.7 km/h 19.3 km/h 99 % 0.0 mm 0 W/m2
05:25 10.3 °C 10.1 °C 1021.2 hPa West 4.8 km/h 17.7 km/h 99 % 0.0 mm 0 W/m2
05:30 10.2 °C 10.1 °C 1021.2 hPa West 8.0 km/h 17.7 km/h 99 % 0.0 mm 0 W/m2
05:35 10.3 °C 10.1 °C 1021.2 hPa WNW 9.7 km/h 24.1 km/h 99 % 0.0 mm 0 W/m2
05:40 10.2 °C 10.1 °C 1021.2 hPa SW 12.9 km/h 24.1 km/h 99 % 0.0 mm 0 W/m2
05:45 10.2 °C 10.1 °C 1020.9 hPa WSW 11.3 km/h 19.3 km/h 99 % 0.0 mm 0 W/m2
05:50 10.2 °C 10.1 °C 1020.9 hPa WSW 6.4 km/h 19.3 km/h 99 % 0.0 mm 0 W/m2
05:55 10.2 °C 10.0 °C 1020.9 hPa West 14.5 km/h 16.1 km/h 99 % 0.0 mm 0 W/m2
06:00 10.2 °C 10.0 °C 1020.9 hPa WSW 9.7 km/h 20.9 km/h 99 % 0.0 mm 0 W/m2
06:05 10.2 °C 9.9 °C 1020.9 hPa West 8.0 km/h 20.9 km/h 98 % 0.0 mm 0 W/m2
06:10 10.2 °C 9.9 °C 1020.9 hPa WSW 9.7 km/h 20.9 km/h 98 % 0.0 mm 0 W/m2
06:15 10.3 °C 10.0 °C 1020.9 hPa West 9.7 km/h 22.5 km/h 98 % 0.0 mm 0 W/m2
06:20 10.3 °C 10.0 °C 1020.9 hPa WSW 8.0 km/h 22.5 km/h 98 % 0.0 mm 0 W/m2
06:25 10.3 °C 10.0 °C 1020.9 hPa West 9.7 km/h 24.1 km/h 98 % 0.0 mm 0 W/m2
06:30 10.3 °C 10.0 °C 1020.9 hPa West 17.7 km/h 24.1 km/h 98 % 0.0 mm 0 W/m2
06:35 10.3 °C 10.0 °C 1021.2 hPa WNW 9.7 km/h 24.1 km/h 98 % 0.0 mm 0 W/m2
06:40 10.3 °C 10.0 °C 1021.2 hPa WSW 6.4 km/h 25.7 km/h 98 % 0.0 mm 0 W/m2
06:45 10.3 °C 10.0 °C 1021.2 hPa West 24.1 km/h 25.7 km/h 98 % 0.0 mm 0 W/m2
06:50 10.3 °C 10.0 °C 1021.2 hPa WSW 8.0 km/h 24.1 km/h 98 % 0.0 mm 0 W/m2
06:55 10.3 °C 10.0 °C 1021.2 hPa West 8.0 km/h 24.1 km/h 98 % 0.0 mm 0 W/m2
07:00 10.3 °C 10.0 °C 1021.6 hPa WNW 8.0 km/h 20.9 km/h 98 % 0.0 mm 0 W/m2
07:05 10.3 °C 10.0 °C 1021.6 hPa WNW 12.9 km/h 19.3 km/h 98 % 0.0 mm 0 W/m2
07:10 10.4 °C 10.1 °C 1021.2 hPa West 12.9 km/h 20.9 km/h 98 % 0.0 mm 0 W/m2
07:15 10.4 °C 10.1 °C 1021.2 hPa WSW 14.5 km/h 22.5 km/h 98 % 0.0 mm 0 W/m2
07:20 10.5 °C 10.2 °C 1021.2 hPa West 11.3 km/h 22.5 km/h 98 % 0.0 mm 0 W/m2
07:25 10.5 °C 10.2 °C 1020.9 hPa West 11.3 km/h 25.7 km/h 98 % 0.0 mm 0 W/m2
07:30 10.6 °C 10.3 °C 1020.9 hPa WSW 6.4 km/h 25.7 km/h 98 % 0.0 mm 0 W/m2
07:35 10.6 °C 10.3 °C 1021.2 hPa West 14.5 km/h 29.0 km/h 98 % 0.0 mm 0 W/m2
07:40 10.6 °C 10.3 °C 1021.2 hPa West 16.1 km/h 29.0 km/h 98 % 0.0 mm 0 W/m2
07:45 10.6 °C 10.3 °C 1021.6 hPa WSW 11.3 km/h 22.5 km/h 98 % 0.0 mm 0 W/m2
07:50 10.6 °C 10.3 °C 1021.2 hPa SW 17.7 km/h 24.1 km/h 98 % 0.0 mm 5 W/m2
07:55 10.7 °C 10.4 °C 1021.2 hPa WSW 4.8 km/h 24.1 km/h 98 % 0.0 mm 11 W/m2
08:00 10.7 °C 10.4 °C 1021.6 hPa West 11.3 km/h 24.1 km/h 98 % 0.0 mm 11 W/m2
08:05 10.7 °C 10.4 °C 1021.2 hPa WSW 12.9 km/h 22.5 km/h 98 % 0.0 mm 16 W/m2
08:10 10.7 °C 10.4 °C 1021.2 hPa West 12.9 km/h 22.5 km/h 98 % 0.0 mm 23 W/m2
08:15 10.7 °C 10.4 °C 1021.6 hPa West 11.3 km/h 24.1 km/h 98 % 0.0 mm 18 W/m2
08:20 10.8 °C 10.5 °C 1021.6 hPa WSW 9.7 km/h 24.1 km/h 98 % 0.0 mm 25 W/m2
08:25 10.8 °C 10.5 °C 1021.6 hPa West 6.4 km/h 24.1 km/h 98 % 0.0 mm 26 W/m2
08:30 10.8 °C 10.5 °C 1021.6 hPa West 11.3 km/h 27.4 km/h 98 % 0.0 mm 28 W/m2
08:35 10.8 °C 10.5 °C 1021.6 hPa West 8.0 km/h 27.4 km/h 98 % 0.0 mm 35 W/m2
08:40 10.8 °C 10.5 °C 1021.6 hPa West 9.7 km/h 19.3 km/h 98 % 0.0 mm 51 W/m2
08:45 10.8 °C 10.5 °C 1021.9 hPa West 19.3 km/h 20.9 km/h 98 % 0.0 mm 37 W/m2
08:50 10.8 °C 10.5 °C 1021.6 hPa West 4.8 km/h 24.1 km/h 98 % 0.0 mm 44 W/m2
08:55 10.9 °C 10.6 °C 1021.9 hPa West 9.7 km/h 32.2 km/h 98 % 0.0 mm 62 W/m2
09:00 10.9 °C 10.6 °C 1021.9 hPa WNW 12.9 km/h 32.2 km/h 98 % 0.0 mm 77 W/m2
09:10 10.9 °C 10.6 °C 1021.9 hPa West 8.0 km/h 25.7 km/h 98 % 0.0 mm 65 W/m2
09:15 10.9 °C 10.6 °C 1021.9 hPa WSW 14.5 km/h 25.7 km/h 98 % 0.0 mm 62 W/m2
09:20 10.9 °C 10.6 °C 1021.9 hPa West 6.4 km/h 29.0 km/h 98 % 0.0 mm 40 W/m2
09:25 11.0 °C 10.7 °C 1021.9 hPa WSW 20.9 km/h 29.0 km/h 98 % 0.0 mm 49 W/m2
09:30 11.0 °C 10.7 °C 1021.9 hPa SW 4.8 km/h 24.1 km/h 98 % 0.0 mm 44 W/m2
09:35 10.9 °C 10.6 °C 1021.9 hPa West 4.8 km/h 22.5 km/h 98 % 0.0 mm 51 W/m2
09:40 10.9 °C 10.6 °C 1021.9 hPa SW 12.9 km/h 22.5 km/h 98 % 0.0 mm 72 W/m2
09:45 11.0 °C 10.7 °C 1021.9 hPa West 6.4 km/h 24.1 km/h 98 % 0.0 mm 90 W/m2
09:50 11.1 °C 10.8 °C 1021.9 hPa WSW 11.3 km/h 24.1 km/h 98 % 0.0 mm 105 W/m2
09:55 11.1 °C 10.8 °C 1022.2 hPa West 12.9 km/h 22.5 km/h 98 % 0.0 mm 76 W/m2
10:00 11.0 °C 10.7 °C 1022.2 hPa West 17.7 km/h 25.7 km/h 98 % 0.0 mm 72 W/m2
10:05 11.1 °C 10.8 °C 1022.6 hPa West 9.7 km/h 25.7 km/h 98 % 0.0 mm 113 W/m2
10:10 11.1 °C 10.8 °C 1022.6 hPa West 6.4 km/h 25.7 km/h 98 % 0.0 mm 102 W/m2
10:15 11.1 °C 10.8 °C 1022.6 hPa WNW 8.0 km/h 25.7 km/h 98 % 0.0 mm 72 W/m2
10:20 11.1 °C 10.8 °C 1022.6 hPa West 11.3 km/h 22.5 km/h 98 % 0.0 mm 84 W/m2
10:25 11.1 °C 10.8 °C 1022.6 hPa WNW 12.9 km/h 22.5 km/h 98 % 0.0 mm 114 W/m2
10:30 11.1 °C 10.8 °C 1022.6 hPa WNW 16.1 km/h 24.1 km/h 98 % 0.0 mm 102 W/m2
10:35 11.1 °C 10.8 °C 1022.9 hPa SSW 9.7 km/h 24.1 km/h 98 % 0.0 mm 84 W/m2
10:40 11.1 °C 10.8 °C 1022.6 hPa WNW 12.9 km/h 29.0 km/h 98 % 0.0 mm 114 W/m2
10:45 11.2 °C 10.9 °C 1022.9 hPa SSE 6.4 km/h 29.0 km/h 98 % 0.0 mm 146 W/m2
10:50 11.2 °C 10.9 °C 1022.9 hPa West 11.3 km/h 20.9 km/h 98 % 0.0 mm 118 W/m2
10:55 11.2 °C 10.9 °C 1022.9 hPa West 11.3 km/h 20.9 km/h 98 % 0.0 mm 160 W/m2
11:00 11.3 °C 11.0 °C 1022.9 hPa West 11.3 km/h 20.9 km/h 98 % 0.0 mm 105 W/m2
11:05 11.3 °C 11.0 °C 1022.9 hPa West 12.9 km/h 22.5 km/h 98 % 0.0 mm 130 W/m2
11:10 11.3 °C 11.0 °C 1023.2 hPa SW 11.3 km/h 24.1 km/h 98 % 0.0 mm 114 W/m2
11:15 11.3 °C 11.0 °C 1023.2 hPa WNW 9.7 km/h 24.1 km/h 98 % 0.0 mm 134 W/m2
11:20 11.3 °C 11.0 °C 1023.2 hPa West 9.7 km/h 24.1 km/h 98 % 0.0 mm 144 W/m2
11:25 11.3 °C 11.0 °C 1023.2 hPa West 6.4 km/h 19.3 km/h 98 % 0.0 mm 113 W/m2
11:30 11.3 °C 11.0 °C 1023.6 hPa West 14.5 km/h 25.7 km/h 98 % 0.0 mm 114 W/m2
11:35 11.2 °C 10.9 °C 1023.6 hPa West 4.8 km/h 25.7 km/h 98 % 0.0 mm 114 W/m2
11:40 11.2 °C 10.9 °C 1023.6 hPa WSW 9.7 km/h 22.5 km/h 98 % 0.0 mm 107 W/m2
11:45 11.2 °C 10.9 °C 1023.6 hPa WSW 19.3 km/h 24.1 km/h 98 % 0.0 mm 120 W/m2
11:50 11.2 °C 10.9 °C 1023.6 hPa WSW 14.5 km/h 24.1 km/h 98 % 0.0 mm 98 W/m2
11:55 11.1 °C 10.8 °C 1023.6 hPa West 17.7 km/h 20.9 km/h 98 % 0.0 mm 91 W/m2
12:00 11.2 °C 10.9 °C 1023.6 hPa WNW 8.0 km/h 22.5 km/h 98 % 0.0 mm 100 W/m2
12:05 11.1 °C 10.8 °C 1023.6 hPa WSW 12.9 km/h 22.5 km/h 98 % 0.0 mm 107 W/m2
12:10 11.1 °C 10.8 °C 1023.6 hPa West 11.3 km/h 22.5 km/h 98 % 0.0 mm 123 W/m2
12:15 11.1 °C 11.0 °C 1023.6 hPa West 4.8 km/h 22.5 km/h 99 % 0.0 mm 113 W/m2
12:20 11.2 °C 11.0 °C 1023.6 hPa WSW 9.7 km/h 22.5 km/h 99 % 0.0 mm 128 W/m2
12:25 11.2 °C 11.0 °C 1023.2 hPa West 3.2 km/h 20.9 km/h 99 % 0.0 mm 139 W/m2
12:30 11.2 °C 10.9 °C 1023.2 hPa West 4.8 km/h 20.9 km/h 98 % 0.0 mm 128 W/m2
12:40 11.1 °C 10.8 °C 1023.2 hPa WNW 8.0 km/h 19.3 km/h 98 % 0.0 mm 113 W/m2
12:45 11.1 °C 11.0 °C 1023.2 hPa SW 11.3 km/h 19.3 km/h 99 % 0.0 mm 107 W/m2
12:50 11.1 °C 11.0 °C 1023.2 hPa SW 6.4 km/h 19.3 km/h 99 % 0.0 mm 120 W/m2
12:55 11.2 °C 11.0 °C 1023.2 hPa WSW 4.8 km/h 19.3 km/h 99 % 0.0 mm 132 W/m2
13:00 11.2 °C 11.0 °C 1023.2 hPa West 17.7 km/h 22.5 km/h 99 % 0.0 mm 155 W/m2
13:05 11.2 °C 11.0 °C 1023.6 hPa WSW 11.3 km/h 25.7 km/h 99 % 0.0 mm 185 W/m2
13:10 11.2 °C 10.9 °C 1023.6 hPa NW 3.2 km/h 25.7 km/h 98 % 0.0 mm 151 W/m2
13:15 11.2 °C 11.0 °C 1023.2 hPa West 6.4 km/h 22.5 km/h 99 % 0.0 mm 188 W/m2
13:20 11.3 °C 11.0 °C 1023.2 hPa WSW 6.4 km/h 22.5 km/h 98 % 0.0 mm 188 W/m2
13:25 11.3 °C 11.0 °C 1023.2 hPa WSW 14.5 km/h 22.5 km/h 98 % 0.0 mm 162 W/m2
13:30 11.3 °C 11.0 °C 1023.6 hPa SW 14.5 km/h 24.1 km/h 98 % 0.0 mm 142 W/m2
13:35 11.2 °C 10.9 °C 1023.2 hPa West 9.7 km/h 24.1 km/h 98 % 0.0 mm 179 W/m2
13:40 11.3 °C 11.0 °C 1023.2 hPa WSW 9.7 km/h 22.5 km/h 98 % 0.0 mm 146 W/m2
13:45 11.2 °C 10.9 °C 1023.2 hPa West 8.0 km/h 24.1 km/h 98 % 0.0 mm 137 W/m2
13:50 11.2 °C 10.9 °C 1023.6 hPa WSW 12.9 km/h 24.1 km/h 98 % 0.0 mm 132 W/m2
13:55 11.2 °C 10.9 °C 1023.2 hPa SW 14.5 km/h 22.5 km/h 98 % 0.0 mm 199 W/m2
14:00 11.3 °C 11.2 °C 1023.2 hPa West 11.3 km/h 24.1 km/h 99 % 0.0 mm 186 W/m2
14:05 11.3 °C 11.0 °C 1023.2 hPa SW 11.3 km/h 24.1 km/h 98 % 0.0 mm 165 W/m2
14:10 11.3 °C 11.0 °C 1023.2 hPa WSW 14.5 km/h 25.7 km/h 98 % 0.0 mm 179 W/m2
14:15 11.4 °C 11.1 °C 1023.2 hPa SW 9.7 km/h 25.7 km/h 98 % 0.0 mm 167 W/m2
14:20 11.4 °C 11.1 °C 1023.2 hPa WSW 9.7 km/h 25.7 km/h 98 % 0.0 mm 146 W/m2
14:25 11.3 °C 11.0 °C 1023.2 hPa WSW 12.9 km/h 24.1 km/h 98 % 0.0 mm 158 W/m2
14:30 11.4 °C 11.1 °C 1023.2 hPa WSW 11.3 km/h 24.1 km/h 98 % 0.0 mm 158 W/m2
14:35 11.3 °C 11.0 °C 1023.2 hPa WSW 14.5 km/h 25.7 km/h 98 % 0.0 mm 142 W/m2
14:40 11.3 °C 11.0 °C 1022.9 hPa WSW 9.7 km/h 25.7 km/h 98 % 0.0 mm 120 W/m2
14:45 11.3 °C 11.0 °C 1022.9 hPa West 16.1 km/h 22.5 km/h 98 % 0.0 mm 153 W/m2
14:50 11.4 °C 11.1 °C 1022.9 hPa WSW 14.5 km/h 22.5 km/h 98 % 0.0 mm 162 W/m2
14:55 11.4 °C 11.1 °C 1022.9 hPa WSW 9.7 km/h 24.1 km/h 98 % 0.0 mm 213 W/m2
15:00 11.5 °C 11.2 °C 1022.9 hPa SW 12.9 km/h 24.1 km/h 98 % 0.0 mm 135 W/m2
15:05 11.4 °C 10.9 °C 1022.9 hPa West 14.5 km/h 24.1 km/h 97 % 0.0 mm 141 W/m2
15:10 11.3 °C 10.9 °C 1023.2 hPa WSW 19.3 km/h 24.1 km/h 97 % 0.0 mm 118 W/m2
15:15 11.3 °C 10.9 °C 1023.2 hPa WSW 1.6 km/h 20.9 km/h 97 % 0.0 mm 146 W/m2
15:20 11.4 °C 10.9 °C 1023.2 hPa West 11.3 km/h 20.9 km/h 97 % 0.0 mm 135 W/m2
15:25 11.5 °C 11.2 °C 1023.2 hPa WNW 9.7 km/h 22.5 km/h 98 % 0.0 mm 186 W/m2
15:30 11.6 °C 11.1 °C 1023.2 hPa West 9.7 km/h 22.5 km/h 97 % 0.0 mm 234 W/m2
15:35 11.7 °C 11.3 °C 1023.2 hPa WSW 9.7 km/h 24.1 km/h 97 % 0.0 mm 272 W/m2
15:40 11.8 °C 11.3 °C 1023.2 hPa WNW 12.9 km/h 24.1 km/h 97 % 0.0 mm 223 W/m2
15:45 11.8 °C 11.4 °C 1023.2 hPa WSW 9.7 km/h 27.4 km/h 97 % 0.0 mm 239 W/m2
15:50 11.9 °C 11.4 °C 1023.2 hPa SSW 8.0 km/h 27.4 km/h 97 % 0.0 mm 200 W/m2
16:00 11.8 °C 11.3 °C 1023.2 hPa SW 16.1 km/h 22.5 km/h 97 % 0.0 mm 132 W/m2
16:05 11.7 °C 11.2 °C 1023.2 hPa West 14.5 km/h 22.5 km/h 97 % 0.0 mm 139 W/m2
16:10 11.6 °C 11.2 °C 1023.2 hPa WNW 14.5 km/h 24.1 km/h 97 % 0.0 mm 125 W/m2
16:15 11.6 °C 11.1 °C 1023.2 hPa West 11.3 km/h 24.1 km/h 97 % 0.0 mm 128 W/m2
16:20 11.6 °C 11.1 °C 1023.2 hPa WSW 9.7 km/h 19.3 km/h 97 % 0.0 mm 104 W/m2
16:25 11.5 °C 11.0 °C 1023.2 hPa WSW 6.4 km/h 20.9 km/h 97 % 0.0 mm 93 W/m2
16:30 11.4 °C 10.9 °C 1023.2 hPa West 8.0 km/h 20.9 km/h 97 % 0.0 mm 72 W/m2
16:35 11.3 °C 10.9 °C 1023.2 hPa SW 11.3 km/h 20.9 km/h 97 % 0.0 mm 88 W/m2
16:40 11.3 °C 10.8 °C 1023.2 hPa WSW 12.9 km/h 20.9 km/h 97 % 0.0 mm 58 W/m2
16:45 11.3 °C 10.8 °C 1023.2 hPa West 4.8 km/h 20.9 km/h 97 % 0.0 mm 51 W/m2
16:50 11.3 °C 11.0 °C 1023.2 hPa West 8.0 km/h 20.9 km/h 98 % 0.3 mm 74 W/m2
16:55 11.2 °C 10.9 °C 1023.2 hPa WSW 16.1 km/h 20.9 km/h 98 % 0.3 mm 67 W/m2
17:00 11.2 °C 10.9 °C 1023.6 hPa WSW 11.3 km/h 19.3 km/h 98 % 0.3 mm 56 W/m2
17:05 11.1 °C 10.8 °C 1023.2 hPa WSW 4.8 km/h 16.1 km/h 98 % 0.3 mm 72 W/m2
17:10 11.1 °C 10.8 °C 1023.6 hPa SW 8.0 km/h 16.1 km/h 98 % 0.3 mm 74 W/m2
17:15 11.1 °C 10.8 °C 1023.6 hPa West 8.0 km/h 16.1 km/h 98 % 0.3 mm 83 W/m2
17:20 11.2 °C 10.9 °C 1023.2 hPa WSW 11.3 km/h 19.3 km/h 98 % 0.3 mm 107 W/m2
17:25 11.2 °C 10.9 °C 1023.6 hPa WNW 8.0 km/h 19.3 km/h 98 % 0.3 mm 77 W/m2
17:30 11.2 °C 10.9 °C 1023.2 hPa SSW 4.8 km/h 20.9 km/h 98 % 0.3 mm 56 W/m2
17:35 11.2 °C 10.9 °C 1023.2 hPa West 9.7 km/h 20.9 km/h 98 % 0.3 mm 76 W/m2
17:40 11.2 °C 10.9 °C 1023.2 hPa West 9.7 km/h 19.3 km/h 98 % 0.3 mm 69 W/m2
17:45 11.1 °C 10.8 °C 1023.2 hPa West 12.9 km/h 20.9 km/h 98 % 0.3 mm 63 W/m2
17:50 11.1 °C 10.8 °C 1023.6 hPa SW 11.3 km/h 20.9 km/h 98 % 0.0 mm 53 W/m2
17:55 11.1 °C 10.8 °C 1023.6 hPa WNW 4.8 km/h 16.1 km/h 98 % 0.0 mm 54 W/m2
18:00 11.2 °C 10.9 °C 1023.6 hPa WSW 9.7 km/h 19.3 km/h 98 % 0.0 mm 49 W/m2
18:05 11.1 °C 10.8 °C 1023.6 hPa West 16.1 km/h 22.5 km/h 98 % 0.0 mm 47 W/m2
18:10 11.1 °C 10.8 °C 1023.2 hPa WSW 20.9 km/h 22.5 km/h 98 % 0.0 mm 39 W/m2
18:15 11.1 °C 10.8 °C 1023.2 hPa SW 4.8 km/h 20.9 km/h 98 % 0.0 mm 42 W/m2
18:20 11.1 °C 10.8 °C 1023.2 hPa West 6.4 km/h 25.7 km/h 98 % 0.3 mm 25 W/m2
18:25 11.0 °C 10.7 °C 1023.6 hPa WSW 14.5 km/h 25.7 km/h 98 % 0.3 mm 25 W/m2
18:30 11.0 °C 10.7 °C 1023.6 hPa West 14.5 km/h 27.4 km/h 98 % 0.3 mm 16 W/m2
18:35 11.0 °C 10.7 °C 1023.6 hPa West 8.0 km/h 27.4 km/h 98 % 0.3 mm 21 W/m2
18:40 11.0 °C 10.7 °C 1023.6 hPa WSW 16.1 km/h 20.9 km/h 98 % 0.3 mm 14 W/m2
18:45 11.0 °C 10.7 °C 1023.6 hPa WSW 17.7 km/h 22.5 km/h 98 % 0.3 mm 12 W/m2
18:50 10.9 °C 10.6 °C 1023.6 hPa WSW 12.9 km/h 22.5 km/h 98 % 0.3 mm 12 W/m2
18:55 10.9 °C 10.6 °C 1023.6 hPa West 8.0 km/h 22.5 km/h 98 % 0.3 mm 5 W/m2
19:00 10.9 °C 10.6 °C 1023.6 hPa West 8.0 km/h 22.5 km/h 98 % 0.3 mm 0 W/m2
19:10 10.9 °C 10.6 °C 1023.6 hPa SW 8.0 km/h 22.5 km/h 98 % 0.3 mm 0 W/m2
19:15 11.0 °C 10.7 °C 1023.6 hPa WSW 17.7 km/h 22.5 km/h 98 % 0.3 mm 0 W/m2
19:20 11.1 °C 10.8 °C 1023.6 hPa West 3.2 km/h 20.9 km/h 98 % 0.0 mm 0 W/m2
19:25 11.1 °C 10.8 °C 1023.6 hPa WSW 11.3 km/h 20.9 km/h 98 % 0.0 mm 0 W/m2
19:30 10.9 °C 10.6 °C 1023.6 hPa SW 4.8 km/h 17.7 km/h 98 % 0.0 mm 0 W/m2
19:35 10.8 °C 10.5 °C 1023.9 hPa West 3.2 km/h 17.7 km/h 98 % 0.0 mm 0 W/m2
19:40 10.8 °C 10.5 °C 1023.6 hPa SW 14.5 km/h 22.5 km/h 98 % 0.0 mm 0 W/m2
19:45 10.8 °C 10.5 °C 1023.6 hPa SW 11.3 km/h 22.5 km/h 98 % 0.0 mm 0 W/m2
19:50 10.8 °C 10.5 °C 1023.6 hPa SW 8.0 km/h 20.9 km/h 98 % 0.0 mm 0 W/m2
19:55 10.8 °C 10.5 °C 1023.9 hPa SW 11.3 km/h 20.9 km/h 98 % 0.0 mm 0 W/m2
20:00 10.8 °C 10.5 °C 1023.9 hPa WSW 12.9 km/h 20.9 km/h 98 % 0.0 mm 0 W/m2
20:05 10.8 °C 10.5 °C 1023.9 hPa West 11.3 km/h 20.9 km/h 98 % 0.0 mm 0 W/m2
20:10 10.8 °C 10.5 °C 1023.9 hPa West 6.4 km/h 17.7 km/h 98 % 0.0 mm 0 W/m2
20:15 10.8 °C 10.5 °C 1023.9 hPa WSW 8.0 km/h 17.7 km/h 98 % 0.0 mm 0 W/m2
20:20 10.8 °C 10.5 °C 1023.9 hPa WSW 19.3 km/h 19.3 km/h 98 % 0.0 mm 0 W/m2
20:25 10.7 °C 10.4 °C 1023.9 hPa West 8.0 km/h 20.9 km/h 98 % 0.0 mm 0 W/m2
20:30 10.7 °C 10.4 °C 1023.9 hPa West 9.7 km/h 24.1 km/h 98 % 0.0 mm 0 W/m2
20:35 10.7 °C 10.4 °C 1024.3 hPa West 9.7 km/h 24.1 km/h 98 % 0.0 mm 0 W/m2
20:40 10.7 °C 10.4 °C 1023.9 hPa West 11.3 km/h 22.5 km/h 98 % 0.0 mm 0 W/m2
20:45 10.7 °C 10.4 °C 1024.3 hPa SSW 9.7 km/h 22.5 km/h 98 % 0.0 mm 0 W/m2
20:50 10.7 °C 10.4 °C 1024.3 hPa West 12.9 km/h 20.9 km/h 98 % 0.0 mm 0 W/m2
20:55 10.7 °C 10.4 °C 1024.3 hPa WSW 9.7 km/h 16.1 km/h 98 % 0.0 mm 0 W/m2
21:00 10.7 °C 10.4 °C 1024.3 hPa SW 12.9 km/h 19.3 km/h 98 % 0.0 mm 0 W/m2
21:05 10.7 °C 10.4 °C 1024.3 hPa WSW 8.0 km/h 20.9 km/h 98 % 0.0 mm 0 W/m2
21:10 10.7 °C 10.4 °C 1024.3 hPa WSW 11.3 km/h 20.9 km/h 98 % 0.0 mm 0 W/m2
21:15 10.7 °C 10.4 °C 1024.3 hPa WNW 16.1 km/h 19.3 km/h 98 % 0.0 mm 0 W/m2
21:20 10.6 °C 10.3 °C 1024.3 hPa WSW 4.8 km/h 19.3 km/h 98 % 0.0 mm 0 W/m2
21:25 10.6 °C 10.3 °C 1024.3 hPa WSW 11.3 km/h 19.3 km/h 98 % 0.0 mm 0 W/m2
21:30 10.6 °C 10.3 °C 1024.3 hPa WSW 6.4 km/h 20.9 km/h 98 % 0.0 mm 0 W/m2
21:40 10.6 °C 10.3 °C 1023.9 hPa WNW 3.2 km/h 17.7 km/h 98 % 0.0 mm 0 W/m2
21:45 10.6 °C 10.3 °C 1023.9 hPa SW 11.3 km/h 16.1 km/h 98 % 0.0 mm 0 W/m2
21:50 10.6 °C 10.3 °C 1023.9 hPa WSW 8.0 km/h 16.1 km/h 98 % 0.0 mm 0 W/m2
21:55 10.6 °C 10.3 °C 1023.9 hPa SW 8.0 km/h 19.3 km/h 98 % 0.0 mm 0 W/m2
22:00 10.5 °C 10.2 °C 1024.3 hPa SW 4.8 km/h 19.3 km/h 98 % 0.0 mm 0 W/m2
22:05 10.6 °C 10.3 °C 1024.3 hPa West 11.3 km/h 17.7 km/h 98 % 0.0 mm 0 W/m2
22:10 10.5 °C 10.2 °C 1024.3 hPa WSW 3.2 km/h 19.3 km/h 98 % 0.0 mm 0 W/m2
22:15 10.5 °C 10.2 °C 1024.3 hPa WSW 8.0 km/h 20.9 km/h 98 % 0.0 mm 0 W/m2
22:20 10.5 °C 10.2 °C 1024.3 hPa SW 8.0 km/h 20.9 km/h 98 % 0.0 mm 0 W/m2
22:25 10.5 °C 10.2 °C 1024.3 hPa SW 8.0 km/h 17.7 km/h 98 % 0.0 mm 0 W/m2
22:30 10.5 °C 10.2 °C 1024.3 hPa SW 6.4 km/h 19.3 km/h 98 % 0.0 mm 0 W/m2
22:35 10.5 °C 10.2 °C 1024.3 hPa West 6.4 km/h 19.3 km/h 98 % 0.0 mm 0 W/m2
22:40 10.5 °C 10.2 °C 1024.6 hPa WSW 11.3 km/h 19.3 km/h 98 % 0.0 mm 0 W/m2
22:45 10.5 °C 10.2 °C 1024.6 hPa West 6.4 km/h 17.7 km/h 98 % 0.0 mm 0 W/m2
22:50 10.5 °C 10.2 °C 1024.6 hPa SW 14.5 km/h 17.7 km/h 98 % 0.0 mm 0 W/m2
22:55 10.4 °C 10.1 °C 1024.6 hPa WSW 16.1 km/h 17.7 km/h 98 % 0.0 mm 0 W/m2
23:00 10.4 °C 10.1 °C 1024.6 hPa WSW 16.1 km/h 17.7 km/h 98 % 0.0 mm 0 W/m2
23:05 10.4 °C 10.1 °C 1024.6 hPa West 9.7 km/h 22.5 km/h 98 % 0.0 mm 0 W/m2
23:10 10.5 °C 10.2 °C 1024.6 hPa West 11.3 km/h 22.5 km/h 98 % 0.0 mm 0 W/m2
23:15 10.5 °C 10.2 °C 1024.6 hPa WSW 17.7 km/h 22.5 km/h 98 % 0.0 mm 0 W/m2
23:20 10.5 °C 10.2 °C 1024.6 hPa West 4.8 km/h 20.9 km/h 98 % 0.0 mm 0 W/m2
23:25 10.5 °C 10.2 °C 1024.6 hPa West 16.1 km/h 22.5 km/h 98 % 0.0 mm 0 W/m2
23:30 10.6 °C 10.3 °C 1024.6 hPa WSW 4.8 km/h 22.5 km/h 98 % 0.0 mm 0 W/m2
23:35 10.6 °C 10.3 °C 1024.6 hPa WSW 11.3 km/h 19.3 km/h 98 % 0.0 mm 0 W/m2
23:40 10.5 °C 10.2 °C 1024.6 hPa SW 1.6 km/h 19.3 km/h 98 % 0.0 mm 0 W/m2
23:45 10.5 °C 10.2 °C 1024.6 hPa SW 8.0 km/h 16.1 km/h 98 % 0.0 mm 0 W/m2
23:50 10.5 °C 10.2 °C 1024.6 hPa WNW 9.7 km/h 16.1 km/h 98 % 0.0 mm 0 W/m2
23:55 10.5 °C 10.2 °C 1024.6 hPa SW 9.7 km/h 16.1 km/h 98 % 0.0 mm 0 W/m2
Avec l'autorisation de Weather Underground - 1.75 mb